sat.trackr.live / text

‹ back to catalog

STARLINK-5865

NORAD 57053 · 2023-088F

PAYLOAD ACTIVE UNKNOWN

§ Identity

Operator
Country
US
Launch date
2023-06-22
Launch site
AFWTR
Launch vehicle
Mass (kg)
RCS (m²)

Purposes: comms

External: N2YO · Heavens-Above · Gunter

§ Orbital elements

Epoch: 2026-09-19T21:45:09.853056Z

Period
94.27 min
Inclination
43.0017°
Eccentricity
0.0001058
Mean motion
15.27573041 rev/d
Perigee alt
482.3 km
Apogee alt
483.8 km
Semi-major
6,861.2 km
B*
-7.6632e-6
RAAN
93.9709°
Arg perigee
264.2852°
Mean anomaly
95.7879°
Rev number
18,003

§ Raw data

STARLINK-58651 57053U 23088F   26262.90636404 -.00000473  00000+0 -76632-5 0  99952 57053  43.0017  93.9709 0001058 264.2852  95.7879 15.27573041180039

JSON: /api/v1/satellites/57053 · /tle

For live sub-satellite position, see the globe view (requires WebGL).

§ Visibility from observer

Set your observer location to see the next 7 days of passes ≥ 10°. The values pass through the URL so the page stays shareable.

No JS? Fill the form by hand. The geolocation button needs JavaScript.